• Em Portugal
  • Lista de países
  • Para 7 dias
  • Temperatura da água
  • Mapas de satélite
  • Mapa do tempo
  • Widgets de tempo
  • user-avatar
    Iniciar Sessão

    Previsão horária em Roslavka

    Hoje, 16 Novembro, Sexta-feira

    Tempo Temperatura Precipitação Vento Pressão Humidade
    00:00 +3°C° 0.1 mm 1 m/s 750 mmHg 79%
    01:00 +2°C° 0.5 mm 2 m/s 750 mmHg 83%
    02:00 +2°C° 0.5 mm 2 m/s 750 mmHg 86%
    03:00 +2°C° 0 mm 2 m/s 750 mmHg 90%
    04:00 +1°C° 0.8 mm 2 m/s 750 mmHg 91%
    05:00 -1°C° 0.8 mm 3 m/s 750 mmHg 91%
    06:00 -2°C° 0.8 mm 4 m/s 751 mmHg 91%
    07:00 -3°C° 0.1 mm 4 m/s 751 mmHg 82%
    08:00 -4°C° 0.1 mm 4 m/s 752 mmHg 73%
    09:00 -5°C° 0.1 mm 5 m/s 752 mmHg 65%
    10:00 -5°C° 0 mm 5 m/s 752 mmHg 60%
    11:00 -5°C° 0 mm 5 m/s 752 mmHg 56%
    12:00 -5°C° 0 mm 5 m/s 752 mmHg 52%
    13:00 -6°C° 0 mm 5 m/s 752 mmHg 52%
    14:00 -6°C° 0 mm 5 m/s 752 mmHg 53%
    15:00 -5°C° 0 mm 4 m/s 752 mmHg 53%
    16:00 -7°C° 0 mm 4 m/s 752 mmHg 58%
    17:00 -7°C° 0 mm 3 m/s 752 mmHg 62%
    18:00 -7°C° 0 mm 2 m/s 752 mmHg 67%
    19:00 -6°C° 0 mm 1 m/s 752 mmHg 67%
    20:00 -6°C° 0 mm 1 m/s 752 mmHg 66%
    21:00 -6°C° 0 mm 1 m/s 752 mmHg 66%
    22:00 -6°C° 0 mm 1 m/s 752 mmHg 66%
    23:00 -6°C° 0 mm 1 m/s 752 mmHg 66%

    Amanhã, 17 Novembro, Sábado

    Tempo Temperatura Precipitação Vento Pressão Humidade
    00:00 -6°C° 0 mm 1 m/s 752 mmHg 66%
    01:00 -6°C° 0 mm 1 m/s 752 mmHg 67%
    02:00 -6°C° 0 mm 1 m/s 752 mmHg 68%
    03:00 -6°C° 0 mm 1 m/s 752 mmHg 69%
    04:00 -6°C° 0 mm 1 m/s 752 mmHg 69%
    05:00 -6°C° 0 mm 1 m/s 752 mmHg 70%
    06:00 -7°C° 0 mm 2 m/s 752 mmHg 70%
    07:00 -6°C° 0 mm 2 m/s 752 mmHg 63%
    08:00 -5°C° 0 mm 2 m/s 752 mmHg 56%
    09:00 -6°C° 0 mm 3 m/s 752 mmHg 49%
    10:00 -4°C° 0 mm 3 m/s 751 mmHg 45%
    11:00 -2°C° 0 mm 3 m/s 751 mmHg 41%
    12:00 -2°C° 0 mm 4 m/s 751 mmHg 37%
    13:00 -2°C° 0 mm 4 m/s 750 mmHg 38%
    14:00 -2°C° 0 mm 4 m/s 750 mmHg 39%
    15:00 -1°C° 0 mm 3 m/s 750 mmHg 41%
    16:00 -2°C° 0 mm 3 m/s 750 mmHg 47%
    17:00 -3°C° 0 mm 2 m/s 750 mmHg 53%
    18:00 -2°C° 0 mm 1 m/s 751 mmHg 59%
    19:00 -2°C° 0 mm 1 m/s 751 mmHg 60%
    20:00 -3°C° 0 mm 1 m/s 751 mmHg 62%
    21:00 -3°C° 0 mm 1 m/s 751 mmHg 63%
    22:00 -3°C° 0 mm 1 m/s 751 mmHg 64%
    23:00 -3°C° 0 mm 1 m/s 751 mmHg 65%

    Depois de amanhã, 18 Novembro, Domingo

    Tempo Temperatura Precipitação Vento Pressão Humidade
    00:00 -3°C° 0 mm 1 m/s 751 mmHg 66%
    01:00 -3°C° 0 mm 1 m/s 751 mmHg 66%
    02:00 -3°C° 0 mm 1 m/s 751 mmHg 67%
    03:00 -3°C° 0 mm 1 m/s 751 mmHg 68%
    04:00 -4°C° 0 mm 1 m/s 751 mmHg 68%
    05:00 -4°C° 0 mm 1 m/s 751 mmHg 69%
    06:00 -4°C° 0 mm 1 m/s 751 mmHg 70%
    07:00 -4°C° 0 mm 0 m/s 751 mmHg 66%
    08:00 -3°C° 0 mm 0 m/s 752 mmHg 61%
    09:00 -2°C° 0 mm 0 m/s 752 mmHg 57%
    10:00 0°C° 0 mm 1 m/s 752 mmHg 53%
    11:00 +1°C° 0 mm 1 m/s 751 mmHg 48%
    12:00 +2°C° 0 mm 1 m/s 751 mmHg 43%
    13:00 +2°C° 0 mm 1 m/s 751 mmHg 44%
    14:00 +2°C° 0 mm 1 m/s 751 mmHg 45%
    15:00 +2°C° 0 mm 1 m/s 751 mmHg 46%
    16:00 0°C° 0 mm 1 m/s 751 mmHg 52%
    17:00 -2°C° 0 mm 0 m/s 751 mmHg 58%
    18:00 -3°C° 0 mm 0 m/s 751 mmHg 64%
    19:00 -3°C° 0 mm 0 m/s 751 mmHg 65%
    20:00 -3°C° 0 mm 0 m/s 751 mmHg 65%
    21:00 -4°C° 0 mm 0 m/s 751 mmHg 66%
    22:00 -4°C° 0 mm 0 m/s 751 mmHg 66%
    23:00 -3°C° 0 mm 1 m/s 751 mmHg 66%

    19 Novembro, Segunda-feira

    Tempo Temperatura Precipitação Vento Pressão Humidade
    00:00 -3°C° 0 mm 1 m/s 750 mmHg 67%
    01:00 -3°C° 0 mm 1 m/s 750 mmHg 66%
    02:00 -3°C° 0 mm 1 m/s 750 mmHg 66%
    03:00 -3°C° 0 mm 1 m/s 750 mmHg 66%
    04:00 -3°C° 0 mm 1 m/s 750 mmHg 65%
    05:00 -3°C° 0 mm 1 m/s 750 mmHg 65%
    06:00 -3°C° 0 mm 1 m/s 750 mmHg 64%
    07:00 -2°C° 0 mm 1 m/s 750 mmHg 60%
    08:00 -2°C° 0 mm 1 m/s 750 mmHg 56%
    09:00 -2°C° 0 mm 0 m/s 750 mmHg 53%
    10:00 0°C° 0 mm 1 m/s 750 mmHg 52%
    11:00 -1°C° 0 mm 2 m/s 750 mmHg 51%
    12:00 0°C° 0 mm 3 m/s 750 mmHg 50%
    13:00 -1°C° 0 mm 3 m/s 750 mmHg 53%
    14:00 -2°C° 0 mm 4 m/s 750 mmHg 55%
    15:00 -3°C° 0 mm 4 m/s 750 mmHg 58%
    16:00 -4°C° 0 mm 3 m/s 751 mmHg 58%
    17:00 -4°C° 0 mm 2 m/s 752 mmHg 58%
    18:00 -5°C° 0 mm 2 m/s 752 mmHg 59%
    19:00 -3°C° 0 mm 1 m/s 753 mmHg 57%
    20:00 -4°C° 0 mm 1 m/s 753 mmHg 56%
    21:00 -4°C° 0 mm 1 m/s 753 mmHg 55%
    22:00 -4°C° 0 mm 1 m/s 753 mmHg 54%
    23:00 -5°C° 0 mm 0 m/s 753 mmHg 54%

    20 Novembro, Terça-feira

    Tempo Temperatura Precipitação Vento Pressão Humidade
    00:00 -6°C° 0 mm 0 m/s 753 mmHg 54%
    01:00 -6°C° 0 mm 0 m/s 753 mmHg 54%
    02:00 -6°C° 0 mm 1 m/s 753 mmHg 54%
    03:00 -6°C° 0 mm 1 m/s 753 mmHg 55%
    04:00 -6°C° 0 mm 1 m/s 753 mmHg 55%
    05:00 -7°C° 0 mm 1 m/s 753 mmHg 55%
    06:00 -7°C° 0 mm 1 m/s 752 mmHg 55%
    07:00 -6°C° 0 mm 1 m/s 752 mmHg 52%
    08:00 -6°C° 0 mm 2 m/s 752 mmHg 49%
    09:00 -5°C° 0 mm 2 m/s 752 mmHg 46%
    10:00 -4°C° 0 mm 3 m/s 751 mmHg 42%
    11:00 -2°C° 0 mm 3 m/s 751 mmHg 39%
    12:00 -1°C° 0 mm 4 m/s 750 mmHg 36%
    13:00 -1°C° 0 mm 4 m/s 750 mmHg 40%
    14:00 0°C° 0 mm 3 m/s 750 mmHg 44%
    15:00 0°C° 0 mm 3 m/s 749 mmHg 48%
    16:00 -1°C° 0.2 mm 3 m/s 750 mmHg 59%
    17:00 -2°C° 0.2 mm 2 m/s 750 mmHg 69%
    18:00 -3°C° 0.2 mm 2 m/s 750 mmHg 80%
    19:00 -4°C° 0.2 mm 2 m/s 750 mmHg 73%
    20:00 -5°C° 0.2 mm 3 m/s 751 mmHg 67%
    21:00 -7°C° 0.2 mm 4 m/s 751 mmHg 61%
    22:00 -7°C° 0 mm 3 m/s 751 mmHg 57%
    23:00 -8°C° 0 mm 3 m/s 752 mmHg 54%

    21 Novembro, Quarta-feira

    Tempo Temperatura Precipitação Vento Pressão Humidade
    00:00 -8°C° 0 mm 3 m/s 752 mmHg 51%
    01:00 -9°C° 0 mm 3 m/s 752 mmHg 52%
    02:00 -9°C° 0 mm 3 m/s 752 mmHg 53%
    03:00 -10°C° 0 mm 3 m/s 752 mmHg 54%
    04:00 -9°C° 0 mm 2 m/s 753 mmHg 55%
    05:00 -10°C° 0 mm 2 m/s 753 mmHg 56%
    06:00 -10°C° 0 mm 2 m/s 753 mmHg 57%
    07:00 -10°C° 0 mm 2 m/s 753 mmHg 54%
    08:00 -9°C° 0 mm 2 m/s 753 mmHg 52%
    09:00 -9°C° 0 mm 2 m/s 753 mmHg 49%
    10:00 -8°C° 0 mm 2 m/s 753 mmHg 46%
    11:00 -8°C° 0 mm 2 m/s 753 mmHg 43%
    12:00 -8°C° 0 mm 3 m/s 753 mmHg 39%
    13:00 -7°C° 0 mm 2 m/s 752 mmHg 38%
    14:00 -7°C° 0 mm 2 m/s 752 mmHg 37%
    15:00 -7°C° 0 mm 2 m/s 752 mmHg 36%
    16:00 -7°C° 0 mm 2 m/s 752 mmHg 39%
    17:00 -7°C° 0 mm 1 m/s 752 mmHg 42%
    18:00 -8°C° 0 mm 1 m/s 752 mmHg 46%
    19:00 -8°C° 0 mm 1 m/s 752 mmHg 46%
    20:00 -8°C° 0 mm 1 m/s 753 mmHg 47%
    21:00 -9°C° 0 mm 2 m/s 753 mmHg 48%
    22:00 -9°C° 0 mm 2 m/s 753 mmHg 48%
    23:00 -9°C° 0 mm 2 m/s 752 mmHg 48%
    Mostrar mais